Hourly Data Report for October 02, 2014

All times are specified in Local Standard Time (LST). Add 1 hour to adjust for Daylight Saving Time where and when it is observed.

POND INLET A
NUNAVUT

72°41'22.000" N
77°58'08.000" W
61.60 m
2403206
71095
YIO

Download Data

Hourly Data (October 2014)
Hourly Data Report for October 2, 2014
Temp Definition
°C
Dew Point Temp Definition
°C
Rel Hum Definition
%
Wind Dir Definition
10's deg

Wind Spd Definition
km/h
Visibility Definition
km
Stn Press Definition
kPa
Hmdx Definition


Wind Chill Definition


Weather Definition


TIME
00:00 Legend Double Dagger -7.2 -8.6 90 18 15 2.0 100.09   -13 Snow
01:00 Legend Double Dagger -7.2 -8.4 91 16 18 2.0 100.07   -14 Snow
02:00 Legend Double Dagger -6.9 -8.1 91 17 15 2.0 100.08   -13 Snow
03:00 Legend Double Dagger -6.8 -8.2 90 16 15 6.4 100.10   -13 Snow
04:00 Legend Double Dagger -7.3 -8.8 89 17 18 4.8 100.10   -14 Snow
05:00 Legend Double Dagger -8.2 -9.7 89 14 15 16.1 100.12   -15 Snow
06:00 Legend Double Dagger -6.9 -8.4 89 16 17 16.1 100.13   -13 Snow
07:00 Legend Double Dagger -8.1 -9.5 90 16 17 16.1 100.13   -15 Snow
08:00 Legend Double Dagger -6.7 -8.1 90 16 13 16.1 100.15   -12 Snow
09:00 Legend Double Dagger -6.3 -7.8 89 17 17 16.1 100.20   -13 Snow
10:00 Legend Double Dagger -6.0 -7.4 90 15 15 16.1 100.24   -12 Snow
11:00 Legend Double Dagger -5.0 -7.1 85 27 9 16.1 100.26   -9 Snow
12:00 Legend Double Dagger -5.0 -7.8 81 26 11 16.1 100.29   -10 Snow
13:00 Legend Double Dagger -5.1 -8.1 80 27 11 16.1 100.31   -10 LegendNANA
14:00 Legend Double Dagger -5.0 -7.9 80 29 8 16.1 100.38   -9 LegendNANA
15:00 Legend Double Dagger -5.6 -7.2 89 14 9 12.9 100.41   -10 Snow
16:00 Legend Double Dagger -5.8 -7.3 89 15 11 16.1 100.44   -11 Snow
17:00 Legend Double Dagger -6.0 -7.5 89 15 13 16.1 100.48   -11 LegendNANA
18:00 Legend Double Dagger -5.8 -7.6 87 14 13 16.1 100.50   -11 LegendNANA
19:00 Legend Double Dagger -5.7 -7.6 87 16 13 16.1 100.52   -11 LegendNANA
20:00 Legend Double Dagger -5.9 -7.6 88 16 11 16.1 100.55   -11 Snow
21:00 Legend Double Dagger -5.8 -7.8 86 15 13 16.1 100.56   -11 LegendNANA
22:00 Legend Double Dagger -5.7 -7.8 85 15 13 16.1 100.55   -11 LegendNANA
23:00 Legend Double Dagger -5.9 -8.0 85 16 15 16.1 100.57   -12 LegendNANA

Notes on Data Quality.

Legend

  • E = Estimated
  • M = Missing
  • NA = Not Available
  • ‡ = Partner data that is not subject to review by the National Climate Archives
Date modified: